Waarnemingen

Advertentie
Mijn weer
Greifswald, Duitsland (10184): temperatuur & dauwpunt: 13.06.2018 22:00:00 - 19.06.2018 22:00:00 (CEST)Greifswald, Duitsland (10184): temperatuur 5cm & temperatuur -5cm: 13.06.2018 22:00:00 - 19.06.2018 22:00:00 (CEST)Greifswald, Duitsland (10184): temperatuur -20cm & temperatuur -100cm: 13.06.2018 22:00:00 - 19.06.2018 22:00:00 (CEST)Greifswald, Duitsland (10184): windsnelheid & windstoten: 13.06.2018 22:00:00 - 19.06.2018 22:00:00 (CEST)Greifswald, Duitsland (10184): windrichting: 13.06.2018 22:00:00 - 19.06.2018 22:00:00 (CEST)Greifswald, Duitsland (10184): luchtdruk: 13.06.2018 22:00:00 - 19.06.2018 22:00:00 (CEST)Greifswald, Duitsland (10184): zicht: 13.06.2018 22:00:00 - 19.06.2018 22:00:00 (CEST)Greifswald, Duitsland (10184): Zonneschijnduur: 13.06.2018 22:00:00 - 19.06.2018 22:00:00 (CEST)Greifswald, Duitsland (10184): neerslag: 13.06.2018 22:00:00 - 19.06.2018 22:00:00 (CEST)
Datum & Tijd tt [°C] td [°C] tt 5cm [°C] tt -5cm [°C] tt -20cm [°C] tt -100cm [°C] ff [km/u] ff [kn] fx [km/u] fx [kn] dd ppp [hPa] vv [km] sd [min] rr [mm]
19.06.2018 22:00:00 16,9 11,2 15,2 22,7 23,9 17,8 9 5 19 10 W 1021,5 60 10 0,0
19.06.2018 21:00:00 18,7 11,4 17,8 24,8 24,1 17,8 11 6 26 14 NW 1020,8 50 60 0,0
19.06.2018 20:00:00 20,9 13,5 21,2 26,8 24,1 17,8 17 9 40 22 WNW 1020,4 45 60 0,0
19.06.2018 19:00:00 22,3 13,0 23,4 27,6 23,8 17,8 24 13 37 20 W 1020,0 30 42 0,0
19.06.2018 18:00:00 22,8 13,7 24,6 27,8 23,4 17,8 23 12 35 19 W 1019,7 35 50 0,0
19.06.2018 17:00:00 22,3 14,2 25,2 26,5 23,0 17,8 19 11 31 17 W 1019,8 35 16 0,0
19.06.2018 16:00:00 21,5 13,6 23,1 27,1 22,6 17,8 20 11 39 21 W 1019,7 35 22 0,0
19.06.2018 15:00:00 21,7 13,5 24,3 26,1 22,1 17,8 26 14 39 21 WNW 1019,5 28 13 0,0
19.06.2018 14:00:00 21,7 13,4 25,7 24,5 21,7 17,8 16 9 31 17 WZW 1019,3 30 6 0,0
19.06.2018 13:00:00 21,0 13,1 23,8 24,6 21,2 17,7 21 11 38 21 W 1019,2 25 14 0,0
19.06.2018 12:00:00 20,3 13,4 22,6 23,1 20,8 17,7 20 11 34 18 W 1019,2 17 7 0,0
19.06.2018 11:00:00 18,9 13,2 19,7 21,8 20,6 17,7 21 11 36 19 W 1019,1 30 0 0,0
19.06.2018 10:00:00 19,3 13,3 21,3 20,7 20,4 17,7 17 9 31 17 WZW 1018,3 40 2 0,0
19.06.2018 09:00:00 18,2 13,4 18,8 19,9 20,3 17,7 13 7 26 14 ZW 1018,0 28 18 0,0
19.06.2018 08:00:00 17,3 13,7 18,3 19,0 20,4 17,7 16 8 26 14 WZW 1018,0 15 51 0,0
19.06.2018 07:00:00 16,1 14,0 15,7 18,4 20,6 17,7 12 6 34 19 WZW 1018,1 15 0 0,9
19.06.2018 06:00:00 16,3 14,5 16,1 18,5 20,9 17,7 14 8 27 15 WZW 1017,6 14 0 0,0
19.06.2018 05:00:00 16,4 14,9 15,7 18,9 21,2 17,7 11 6 20 11 ZW 1017,3 13 0 0,0
19.06.2018 04:00:00 16,7 15,0 15,7 19,5 21,5 17,7 9 5 21 11 ZW 1017,2 20 0 0,0
19.06.2018 03:00:00 16,8 15,5 16,1 20,0 21,8 17,7 8 5 31 17 WZW 1017,5 12 0 0,1
19.06.2018 02:00:00 18,6 13,4 18,2 20,3 22,1 17,7 20 11 31 17 W 1017,5 35 0 0,0
19.06.2018 01:00:00 18,2 13,0 17,7 20,4 22,4 17,7 8 5 15 8 ZZW 1017,1 60 0 0,0
19.06.2018 00:00:00 18,0 13,0 16,7 21,1 22,8 17,7 7 4 14 8 Z 1017,4 65 0 0,0
18.06.2018 23:00:00 18,4 13,0 16,5 21,8 23,2 17,7 6 3 16 9 ZZW 1017,9 55 0 0,0
18.06.2018 22:00:00 20,0 13,2 19,3 22,8 23,5 17,7 6 3 13 7 ZW 1017,8 60 0 0,0
18.06.2018 21:00:00 20,6 12,4 20,1 23,7 23,7 17,7 5 3 9 5 W 1017,5 65 0 0,0
18.06.2018 20:00:00 20,9 11,4 20,9 24,4 23,9 17,7 6 3 15 8 W 1017,5 70 0 0,0
18.06.2018 19:00:00 21,4 10,3 21,4 25,3 24,0 17,7 8 4 16 9 ZW 1017,6 70 0 0,0
18.06.2018 18:00:00 21,7 10,0 22,3 26,5 23,9 17,7 10 6 24 13 WZW 1017,8 70 0 0,0
18.06.2018 17:00:00 21,9 9,7 23,7 27,8 23,5 17,7 14 8 30 16 WZW 1018,0 65 10 0,0
18.06.2018 16:00:00 22,4 9,2 26,0 27,2 23,1 17,7 12 6 26 14 WZW 1018,3 60 7 0,0
18.06.2018 15:00:00 21,1 10,0 22,5 26,5 22,6 17,7 14 7 25 13 W 1018,5 67 9 0,0
18.06.2018 14:00:00 21,1 10,5 26,7 25,9 22,2 17,6 9 5 18 10 ZZW 1018,6 30 26 0,0
18.06.2018 13:00:00 19,3 11,1 20,2 24,1 22,0 17,6 11 6 21 11 W 1019,0 40 0 0,0
18.06.2018 12:00:00 19,1 10,5 19,8 24,2 21,6 17,6 10 5 19 10 ZW 1019,2 50 2 0,0
18.06.2018 11:00:00 20,2 10,5 24,8 25,0 21,0 17,6 12 7 22 12 WZW 1018,9 55 48 0,0
18.06.2018 10:00:00 19,3 8,1 24,3 22,7 20,5 17,6 8 4 19 11 W 1018,9 35 47 0,0
18.06.2018 09:00:00 18,2 10,3 21,8 20,6 20,3 17,6 11 6 17 9 WNW 1019,2 45 28 0,0
18.06.2018 08:00:00 16,6 11,4 17,7 19,1 20,4 17,6 8 4 13 7 W 1019,1 42 0 0,0
18.06.2018 07:00:00 15,6 11,1 16,1 18,5 20,5 17,6 6 4 10 5 WZW 1018,9 40 0 0,0
18.06.2018 06:00:00 14,9 11,0 14,8 18,1 20,8 17,6 6 3 9 5 ZZW 1018,3 42 0 0,0
18.06.2018 05:00:00 14,7 10,7 13,6 18,3 21,2 17,6 5 3 11 6 WZW 1018,3 46 0 0,0
18.06.2018 04:00:00 14,7 10,5 14,0 18,6 21,6 17,6 4 2 8 4 WZW 1018,3 48 0 0,0
18.06.2018 03:00:00 14,7 10,5 14,0 19,0 22,0 17,6 4 2 8 4 WZW 1018,3 48 0 0,0
18.06.2018 02:00:00 14,7 10,5 12,6 19,6 22,5 17,6 5 3 8 5 ZZW 1018,2 45 0 0,0
18.06.2018 01:00:00 15,4 10,8 14,6 20,3 23,0 17,6 5 3 9 5 ZZW 1017,8 48 0 0,0
18.06.2018 00:00:00 14,8 11,5 12,7 21,1 23,5 17,6 4 2 12 7 WZW 1017,5 45 0 0,0
17.06.2018 23:00:00 17,1 11,1 16,1 22,3 24,0 17,6 5 3 9 5 W 1017,3 45 0 0,0
17.06.2018 22:00:00 17,1 12,1 15,6 23,4 24,5 17,6 6 3 11 6 W 1017,2 40 0 0,0
17.06.2018 21:00:00 18,2 12,2 18,0 25,0 24,9 17,6 9 5 42 23 NW 1016,8 42 3 0,0
17.06.2018 20:00:00 20,9 11,2 20,6 27,0 25,0 17,6 10 6 29 15 NW 1015,9 50 18 0,0
17.06.2018 19:00:00 22,0 10,8 22,6 28,4 24,9 17,6 14 8 25 14 W 1015,2 55 33 0,0
17.06.2018 18:00:00 22,3 10,5 23,5 29,7 24,6 17,6 17 9 26 14 WNW 1014,9 50 45 0,0
17.06.2018 17:00:00 23,5 10,5 26,8 30,2 24,0 17,5 15 8 36 19 WNW 1014,8 31 51 0,0
17.06.2018 16:00:00 22,7 9,5 25,0 29,4 23,3 17,5 17 9 34 19 WZW 1014,5 15 35 0,0
17.06.2018 15:00:00 22,6 10,8 26,4 28,1 22,7 17,5 18 10 33 18 W 1014,4 8 28 0,0
17.06.2018 14:00:00 22,1 12,1 25,5 27,1 22,0 17,5 19 11 32 17 WZW 1014,3 8 28 0,0
17.06.2018 13:00:00 20,9 14,1 23,3 25,2 21,4 17,5 11 6 24 13 WZW 1014,1 11 8 0,0
17.06.2018 12:00:00 20,6 14,6 23,9 24,6 20,8 17,5 14 8 24 13 W 1014,2 12 18 0,0
17.06.2018 11:00:00 19,5 14,4 22,9 22,3 20,5 17,5 9 5 20 11 W 1014,2 12 6 0,0
17.06.2018 10:00:00 18,2 14,8 19,6 20,3 20,4 17,5 10 5 18 10 W 1014,2 8 0 0,0
17.06.2018 09:00:00 17,9 15,1 17,5 20,2 20,3 17,5 6 4 16 9 WNW 1013,4 9 1 0,0
17.06.2018 08:00:00 18,3 14,1 19,2 19,7 20,3 17,5 6 3 26 14 NW 1013,3 11 11 0,0
17.06.2018 07:00:00 18,8 13,2 20,2 18,6 20,4 17,5 12 6 29 16 WZW 1013,1 13 49 0,0
17.06.2018 06:00:00 14,6 12,9 13,7 17,8 20,7 17,5 4 2 6 4 Z 1012,5 10 5 0,0
17.06.2018 05:00:00 14,7 12,6 12,3 18,1 21,1 17,5 0 0 9 5 N 1012,7 13 0 0,0
17.06.2018 04:00:00 16,2 12,9 12,9 18,7 21,5 17,5 4 2 14 7 Z 1012,7 15 0 0,0
17.06.2018 03:00:00 17,4 13,1 15,2 19,3 21,9 17,5 7 4 18 10 ZZO 1013,0 15 0 0,0
17.06.2018 02:00:00 17,9 13,3 16,3 20,0 22,3 17,4 8 5 19 10 ZZO 1013,3 15 0 0,0
17.06.2018 01:00:00 16,5 13,2 15,7 20,5 22,7 17,4 8 4 16 9 OZO 1013,5 15 0 0,0
17.06.2018 00:00:00 17,0 13,3 15,9 21,0 23,1 17,4 10 6 18 10 OZO 1014,0 15 0 0,0
16.06.2018 23:00:00 17,8 12,7 16,9 21,7 23,6 17,4 15 8 23 13 OZO 1014,1 15 0 0,0
16.06.2018 22:00:00 17,9 12,2 16,5 22,8 24,0 17,4 15 8 25 13 OZO 1014,3 30 0 0,0
16.06.2018 21:00:00 19,1 11,7 18,8 24,1 24,3 17,4 14 7 27 15 OZO 1014,5 30 0 0,0
16.06.2018 20:00:00 19,5 11,5 19,5 25,3 24,5 17,4 16 9 28 15 O 1014,6 30 0 0,0
16.06.2018 19:00:00 20,2 11,5 20,8 26,5 24,6 17,4 19 10 31 17 O 1014,8 30 8 0,0
16.06.2018 18:00:00 21,0 12,2 22,1 27,1 24,6 17,4 21 11 36 19 O 1015,1 13 10 0,0
16.06.2018 17:00:00 20,5 11,6 21,2 27,0 24,7 17,4 21 11 31 17 O 1015,5 13 0 0,0
16.06.2018 16:00:00 21,9 11,9 24,0 28,1 24,5 17,4 19 10 32 17 O 1015,9 13 3 0,0
16.06.2018 15:00:00 22,2 11,2 23,9 28,9 24,1 17,4 22 12 29 16 O 1016,1 20 6 0,0
16.06.2018 14:00:00 22,7 12,1 25,2 30,6 23,3 17,4 19 10 29 16 O 1016,5 15 32 0,0
16.06.2018 13:00:00 23,1 12,7 26,6 29,5 22,4 17,4 20 11 30 16 O 1017,2 11 57 0,0
16.06.2018 12:00:00 22,4 12,3 25,6 27,7 21,4 17,4 21 11 29 16 O 1017,5 19 55 0,0
16.06.2018 11:00:00 21,6 12,1 25,5 25,4 20,6 17,4 16 9 26 14 O 1017,6 14 60 0,0
16.06.2018 10:00:00 21,0 12,9 24,2 22,6 20,0 17,4 14 8 21 12 O 1017,9 25 60 0,0
16.06.2018 09:00:00 19,2 13,0 21,7 20,2 19,7 17,4 14 8 20 11 O 1017,9 13 60 0,0
16.06.2018 08:00:00 17,6 12,4 18,9 18,3 19,7 17,4 11 6 15 8 OZO 1017,9 28 60 0,0
16.06.2018 07:00:00 15,4 11,6 15,9 17,1 19,9 17,4 7 4 9 5 OZO 1018,1 22 46 0,0
16.06.2018 06:00:00 12,3 11,1 11,4 16,8 20,3 17,3 0 0 5 3 N 1018,2 12 17 0,0
16.06.2018 05:00:00 11,0 10,4 10,0 16,9 20,8 17,3 5 3 6 3 ZO 1018,2 12 0 0,0
16.06.2018 04:00:00 11,6 10,9 10,1 17,5 21,3 17,3 0 0 5 3 N 1018,2 10 0 0,0
16.06.2018 03:00:00 10,9 10,3 9,5 17,9 21,9 17,3 2 1 4 2 NNW 1018,3 13 0 0,0
16.06.2018 02:00:00 11,8 10,8 10,2 18,8 22,5 17,3 2 1 6 3 Z 1018,2 17 0 0,0
16.06.2018 01:00:00 12,9 11,3 10,3 19,8 23,2 17,3 3 2 13 7 WNW 1018,3 20 0 0,0
16.06.2018 00:00:00 12,5 11,4 11,3 20,8 23,9 17,3 0 0 5 3 N 1018,4 20 0 0,0
15.06.2018 23:00:00 13,3 11,6 11,8 22,1 24,6 17,3 4 2 8 5 ZO 1018,4 20 0 0,0
15.06.2018 22:00:00 14,8 11,9 12,6 24,0 25,2 17,4 4 2 13 7 OZO 1018,3 22 0 0,0
15.06.2018 21:00:00 17,1 11,6 16,0 26,4 25,7 17,4 13 7 16 9 OZO 1018,0 25 46 0,0
15.06.2018 20:00:00 18,7 10,7 18,8 29,0 25,8 17,4 8 4 19 10 ONO 1017,9 25 60 0,0
15.06.2018 19:00:00 19,1 12,1 20,3 30,5 25,6 17,4 10 5 26 14 NO 1017,7 25 59 0,0
15.06.2018 18:00:00 19,7 12,9 22,0 31,5 25,3 17,4 13 7 25 13 NO 1017,6 35 58 0,0
15.06.2018 17:00:00 19,7 9,6 21,4 31,8 24,7 17,4 13 7 26 14 N 1017,6 35 41 0,0
15.06.2018 16:00:00 21,2 11,9 24,9 31,8 24,0 17,4 12 6 25 14 N 1017,4 35 51 0,0
15.06.2018 15:00:00 19,7 11,1 22,5 30,6 23,2 17,4 14 7 22 12 NNO 1017,3 35 39 0,0
15.06.2018 14:00:00 19,9 10,7 23,4 29,4 22,3 17,4 13 7 24 13 N 1017,4 40 27 0,0
15.06.2018 13:00:00 19,9 11,0 25,2 28,0 21,5 17,4 11 6 23 13 W 1017,3 25 38 0,0
15.06.2018 12:00:00 20,1 9,3 26,4 26,0 20,7 17,4 10 5 27 14 W 1017,1 35 55 0,0
15.06.2018 11:00:00 18,4 11,1 20,8 23,9 20,1 17,4 16 8 24 13 NW 1016,9 30 34 0,0
15.06.2018 10:00:00 18,8 11,5 23,8 21,7 19,7 17,4 16 8 23 12 WNW 1016,7 20 40 0,0
15.06.2018 09:00:00 17,1 13,2 19,5 19,8 19,6 17,4 11 6 21 11 W 1016,5 12 1 0,0
15.06.2018 08:00:00 16,4 13,5 17,6 18,9 19,6 17,4 10 5 18 10 W 1015,8 8 1 0,0
15.06.2018 07:00:00 15,5 13,4 16,2 18,3 19,8 17,4 7 4 13 7 WZW 1015,3 6 0 0,0
15.06.2018 06:00:00 14,9 13,7 14,7 18,1 20,0 17,4 6 4 17 9 WNW 1015,2 4,0 0 0,0
15.06.2018 05:00:00 15,8 12,1 15,6 18,3 20,3 17,4 8 4 13 7 WZW 1014,9 11 0 0,0
15.06.2018 04:00:00 15,9 12,0 15,5 18,7 20,6 17,4 7 4 11 6 ZW 1014,7 14 0 0,0
15.06.2018 03:00:00 16,0 11,9 15,7 19,0 21,0 17,4 5 3 10 5 ZW 1014,6 15 0 0,0
15.06.2018 02:00:00 16,1 11,4 15,4 19,4 21,3 17,5 4 2 11 6 ZW 1014,3 30 0 0,0
15.06.2018 01:00:00 16,7 10,2 16,3 19,9 21,8 17,5 6 3 23 13 ZW 1014,3 38 0 0,0
15.06.2018 00:00:00 17,1 9,1 16,2 20,6 22,2 17,5 5 3 12 6 Z 1013,9 45 0 0,0
14.06.2018 23:00:00 17,0 9,3 16,2 21,5 22,8 17,5 6 4 13 7 Z 1013,8 40 0 0,0
14.06.2018 22:00:00 17,2 9,8 15,2 22,8 23,3 17,5 3 2 13 7 Z 1013,9 35 0 0,0
14.06.2018 21:00:00 19,0 9,4 17,8 24,7 23,6 17,5 7 4 18 10 Z 1013,5 35 20 0,0
14.06.2018 20:00:00 20,1 8,4 20,1 26,7 23,7 17,5 11 6 21 11 ZZW 1013,2 39 47 0,0
14.06.2018 19:00:00 20,8 8,4 22,3 28,5 23,4 17,5 11 6 27 15 ZZW 1013,1 41 53 0,0
14.06.2018 18:00:00 20,8 8,1 23,3 29,4 22,9 17,6 12 6 25 13 ZZW 1013,2 35 45 0,0
14.06.2018 17:00:00 20,7 9,2 24,0 30,2 22,0 17,6 9 5 24 13 Z 1013,5 35 53 0,0
14.06.2018 16:00:00 20,1 8,2 23,3 29,3 21,0 17,6 11 6 24 13 ZZW 1013,9 45 47 0,0
14.06.2018 15:00:00 20,2 9,6 24,3 27,5 20,0 17,6 14 8 26 14 ZW 1014,6 24 40 0,0
14.06.2018 14:00:00 18,6 8,0 22,7 25,8 19,0 17,6 8 5 23 12 ZZW 1014,7 39 27 0,0
14.06.2018 13:00:00 17,8 7,0 21,6 23,6 18,2 17,6 11 6 21 11 ZW 1015,1 33 25 0,0
14.06.2018 12:00:00 17,2 7,9 21,1 21,7 17,4 17,6 10 5 21 11 WZW 1015,3 48 21 0,0
14.06.2018 11:00:00 16,4 7,0 19,6 19,5 16,7 17,6 8 4 18 10 ZW 1015,4 33 13 0,0
14.06.2018 10:00:00 15,5 6,7 18,3 17,4 16,3 17,6 9 5 16 9 WNW 1015,5 41 2 0,0
14.06.2018 09:00:00 14,5 8,2 15,8 15,7 16,1 17,6 13 7 21 11 W 1015,5 36 0 0,0
14.06.2018 08:00:00 13,6 8,6 14,5 14,5 16,0 17,7 9 5 19 10 WZW 1015,3 32 0 0,0
14.06.2018 07:00:00 12,5 8,7 12,9 13,5 16,1 17,7 9 5 15 8 WZW 1015,1 30 0 0,0
14.06.2018 06:00:00 11,4 8,4 11,3 12,9 16,3 17,7 9 5 15 8 WZW 1015,1 27 0 0,0
14.06.2018 05:00:00 10,2 7,8 8,9 12,5 16,7 17,7 6 4 11 6 ZW 1014,9 28 0 0,0
14.06.2018 04:00:00 10,1 7,8 8,3 12,9 17,1 17,7 6 3 13 7 ZW 1014,4 26 0 0,0
14.06.2018 03:00:00 10,7 8,1 8,9 13,5 17,5 17,7 8 4 14 7 WZW 1014,1 27 0 0,0
14.06.2018 02:00:00 11,5 8,4 9,7 14,1 17,9 17,7 9 5 14 8 WZW 1013,6 31 0 0,0
14.06.2018 01:00:00 12,4 8,5 10,9 14,7 18,3 17,7 9 5 20 11 WZW 1013,9 32 0 0,0
14.06.2018 00:00:00 13,4 8,5 11,9 15,5 18,7 17,7 14 8 24 13 W 1013,9 33 0 0,0
13.06.2018 23:00:00 13,8 9,1 12,3 16,4 19,1 17,8 13 7 24 13 W 1013,5 31 0 0,0
13.06.2018 22:00:00 15,0 8,9 13,8 17,6 19,4 17,8 16 9 32 17 W 1012,9 37 4 0,0

tt = temperatuur
td = dauwpunt
tt 5cm = temperatuur 5cm
tt -5cm = temperatuur -5cm
tt -20cm = temperatuur -20cm
tt -100cm = temperatuur -100cm
ff = windsnelheid
fx = windstoten
dd = windrichting
ppp = luchtdruk
vv = zicht
sd = Zonneschijnduur
rr = neerslag

Weerstations in de omgeving